NWS Melbourne » East Central Florida Hourly Weather Roundup

 

ASUS42 KMLB 290511
RWRMLB
HOURLY WEATHER ROUNDUP AROUND FLORIDA
NATIONAL WEATHER SERVICE OFFICE MELBOURNE FL
100 AM EDT WED JUN 29 2016
  
CITY           SKY/WX    TMP DP  RH WIND       PRES   REMARKS
MELBOURNE      CLOUDY    78  75  90 CALM      30.01R                  
FORT PIERCE    MOCLDY    78  74  87 W3        30.01S                  
ORLANDO INTL   CLOUDY    78  75  90 S5        30.00S                  
DAYTONA BEACH  CLOUDY    76  73  91 CALM      29.99S                  
VERO BEACH     CLEAR     79  73  82 SW7       30.01S                  
$$
...ELSEWHERE ACROSS CENTRAL FLORIDA...
  
CITY           SKY/WX    TMP DP  RH WIND       PRES   REMARKS
PATRICK AFB    CLOUDY    81  75  81 W9        30.00S                  
KSC            HVY RAIN  75  72  88 S3        30.00S FOG              
CAPE CANAVERAL CLOUDY    76  73  91 W8        30.00S                  
ORLANDO EXEC   CLOUDY    81  75  82 SW5       30.00S                  
LEESBURG       CLOUDY    82  74  76 W5        30.00S                  
THE VILLAGES     N/A     81  75  83 CALM      29.89F                  
SANFORD        CLOUDY    81  73  76 S8        29.99S                  
DELAND           N/A     77  73  88 CALM      30.00S                  
WINTER HAVEN   MOCLDY    79  73  82 SW3       30.02R                  
KISSIMMEE      CLOUDY    79  74  84 SW3       30.01S                  
OKEECHOBEE     MOCLDY    73  72  94 CALM      30.01F                  
TAMPA          PTCLDY    81  73  76 CALM      30.00F                  
$$
...NORTHERN FLORIDA...
  
CITY           SKY/WX    TMP DP  RH WIND       PRES   REMARKS
PALM COAST     PTCLDY    77  74  89 SW3       29.97F                  
ST AUGUSTINE   CLOUDY    78  73  84 SW3       29.97F                  
OCALA          CLOUDY    79  72  78 SW3       29.99F                  
GAINESVILLE    CLOUDY    77  75  93 W3        29.97F                  
JACKSONVILLE   CLOUDY    79  73  82 NW3       29.96S                  
TALLAHASSEE    CLEAR     79  73  82 CALM      29.96F                  
$$
...ALONG THE SOUTHEAST COAST TO THE KEYS...
  
CITY           SKY/WX    TMP DP  RH WIND       PRES   REMARKS
STUART         CLEAR     81  73  78 SW3       30.02S                  
WEST PALM BCH  PTCLDY    79  73  82 CALM      30.01F                  
MIAMI          PTCLDY    81  73  76 SE5       30.01F                  
KEY WEST       PTCLDY    83  76  79 SE6       30.01S                  
$$
...MARINE REPORTS...
  
STATION/POSITION TIME  TEMP    WIND        PRES    WAVE   SWELL
                       AIR SEA DIR/SP/G            HT/PER HT/PER
                 (UTC) (F)     (DEG/KT/KT) (MB)    (FT/S) (FT/S)
ST AUGUSTINE FP  0500   78 85  230/  4/  5 1015.6F
20NM E CAPE CANA 0450   80 84  240/ 16/ 17 1015.9S   3/ 5   2/ 8
120 E NEW SMYRNA 0450   83 84  180/ 16/ 17 1016.1S   3/ 9   2/ 9
TRIDENT PIER     0448   76 87  260/  6/  8 1016.4F
SEBASTIAN INLET  0500   80 83  210/  4     1017.0
4NM E PORT CANAV 0440      85                N/A     3/ 4
6NM NE FPR INLET 0421      84                N/A     3/ 4
SETTLEMENT PT GB 0500   82     170/  7/  9 1017.0F
$$
  
 

 

Link to: East Central Florida Hourly Weather Roundup


USA.gov is the U.S. government's official web portal to all federal, state and local government web resources and services.